DW6927 Weather Reports


time (UTC)temp
C
wind
direction
speed
KPH
gust
KPH
rain 1hr
cm
rain 24hr
cm
rain mn
cm
humidity
%
barometer
mb
20260509154552 17 348 0.0 4.8 0.00 0.00 0.00 84 1012.4
20260509154053 16 332 3.2 4.8 0.00 0.00 0.00 84 1012.4
20260509153553 16 0 1.6 3.2 0.00 0.00 0.00 86 1012.4
20260509153104 16 336 0.0 3.2 0.00 0.00 0.00 87 1012.5
20260509152553 16 318 0.0 6.4 0.00 0.00 0.00 88 1012.5
20260509152054 16 0 0.0 6.4 0.00 0.00 0.00 88 1012.3
20260509151556 16 0 1.6 6.4 0.00 0.00 0.00 88 1012.4
20260509151056 16 22 0.0 6.4 0.00 0.00 0.00 88 1012.4
20260509150553 16 338 0.0 6.4 0.00 0.00 0.00 89 1012.5
20260509150054 16 107 1.6 6.4 0.00 0.00 0.00 90 1012.4
20260509145550 16 20 1.6 6.4 0.00 0.00 0.00 90 1012.6
20260509145053 15 0 0.0 4.8 0.00 0.00 0.00 91 1012.4
20260509144554 15 355 0.0 6.4 0.00 0.00 0.00 91 1012.3
20260509144053 15 0 1.6 6.4 0.00 0.00 0.00 92 1012.2
20260509143553 15 0 0.0 8.0 0.00 0.00 0.00 93 1012.0
20260509143055 15 0 0.0 8.0 0.00 0.00 0.00 94 1011.9
20260509142553 15 329 1.6 8.0 0.00 0.00 0.00 95 1011.7
20260509142053 15 0 0.0 6.4 0.00 0.00 0.00 96 1011.7
20260509141556 14 27 0.0 4.8 0.00 0.00 0.00 96 1011.6
20260509141053 14 360 0.0 4.8 0.00 0.00 0.00 96 1011.6
20260509140553 13 113 0.0 3.2 0.00 0.00 0.00 96 1011.6
20260509140053 13 89 0.0 3.2 0.00 0.00 0.00 97 1011.6
20260509135553 13 0 0.0 3.2 0.00 0.00 0.00 96 1011.5
20260509135053 13 0 0.0 0.0 0.00 0.00 0.00 96 1011.6
20260509134552 12 0 0.0 0.0 0.00 0.00 0.00 96 1011.7
20260509134052 12 0 0.0 0.0 0.00 0.00 0.00 96 1011.8
20260509133556 12 0 0.0 0.0 0.00 0.00 0.00 96 1011.7
20260509133054 12 0 0.0 0.0 0.00 0.00 0.00 96 1011.9
20260509132552 12 0 0.0 0.0 0.00 0.00 0.00 96 1011.7
20260509132054 12 0 0.0 0.0 0.00 0.00 0.00 96 1011.8
20260509131559 12 0 0.0 0.0 0.00 0.00 0.00 96 1011.9
20260509131052 12 0 0.0 0.0 0.00 0.00 0.00 96 1011.8
20260509130552 12 0 0.0 0.0 0.00 0.00 0.00 96 1011.7
20260509130107 12 0 0.0 0.0 0.00 0.00 0.00 96 1011.6
20260509125553 11 0 0.0 0.0 0.00 0.00 0.00 96 1011.6
20260509125053 11 0 0.0 0.0 0.00 0.00 0.00 96 1011.5
20260509124559 11 0 0.0 0.0 0.00 0.00 0.00 96 1011.7
20260509124055 11 0 0.0 0.0 0.00 0.00 0.00 96 1011.7
20260509123554 11 0 0.0 0.0 0.00 0.00 0.00 96 1011.7
20260509123057 11 0 0.0 0.0 0.00 0.00 0.00 96 1011.7
20260509122553 11 0 0.0 0.0 0.00 0.00 0.00 96 1011.7
20260509122053 11 0 0.0 0.0 0.00 0.00 0.00 95 1011.6
20260509121633 11 0 0.0 0.0 0.00 0.00 0.00 95 1011.7
20260509121053 11 0 0.0 0.0 0.00 0.00 0.00 95 1011.5
20260509120554 11 0 0.0 0.0 0.00 0.00 0.00 96 1011.5
20260509115553 11 0 0.0 0.0 0.00 0.00 0.00 96 1011.6
20260509115053 11 0 0.0 0.0 0.00 0.00 0.00 96 1011.5
20260509114600 10 0 0.0 0.0 0.00 0.00 0.00 96 1011.6
20260509114053 10 0 0.0 0.0 0.00 0.00 0.00 96 1011.6
20260509113553 10 0 0.0 0.0 0.00 0.00 0.00 96 1011.8
20260509113059 10 0 0.0 0.0 0.00 0.00 0.00 95 1011.8
20260509112553 10 0 0.0 0.0 0.00 0.00 0.00 95 1011.9
20260509112053 10 0 0.0 0.0 0.00 0.00 0.00 95 1011.9
20260509111553 10 0 0.0 0.0 0.00 0.00 0.00 95 1011.8
20260509111053 10 0 0.0 0.0 0.00 0.00 0.00 95 1011.8
20260509110553 10 0 0.0 0.0 0.00 0.00 0.00 95 1011.8
20260509110056 10 0 0.0 0.0 0.00 0.00 0.00 95 1011.7
20260509105552 10 0 0.0 0.0 0.00 0.00 0.00 95 1011.7
20260509105053 10 0 0.0 0.0 0.00 0.00 0.00 95 1011.5
20260509104553 10 0 0.0 0.0 0.00 0.00 0.00 95 1011.4
20260509104052 10 0 0.0 0.0 0.00 0.00 0.00 95 1011.6
20260509103552 10 0 0.0 0.0 0.00 0.00 0.00 95 1011.6
20260509103102 10 0 0.0 0.0 0.00 0.00 0.00 95 1011.5
20260509102550 10 0 0.0 0.0 0.00 0.00 0.00 94 1011.5
20260509102050 10 0 0.0 0.0 0.00 0.00 0.00 94 1011.7
20260509101605 10 0 0.0 0.0 0.00 0.00 0.00 94 1011.6
20260509101052 10 0 0.0 0.0 0.00 0.00 0.00 95 1011.6
20260509100553 10 0 0.0 0.0 0.00 0.00 0.00 95 1011.4
20260509100054 10 0 0.0 0.0 0.00 0.00 0.00 95 1011.5
20260509095552 10 0 0.0 0.0 0.00 0.00 0.00 94 1011.5
20260509095052 10 0 0.0 0.0 0.00 0.00 0.00 94 1011.5
20260509094604 10 0 0.0 0.0 0.00 0.00 0.00 94 1011.4
20260509094052 10 0 0.0 0.0 0.00 0.00 0.00 94 1011.7
20260509093553 10 0 0.0 0.0 0.00 0.00 0.00 94 1011.9
20260509093052 10 0 0.0 0.0 0.00 0.00 0.00 94 1011.5
20260509092554 10 0 0.0 0.0 0.00 0.00 0.00 94 1011.8
20260509092056 10 0 0.0 0.0 0.00 0.00 0.00 94 1012.0
20260509091605 10 0 0.0 0.0 0.00 0.00 0.00 94 1011.8
20260509091052 10 0 0.0 0.0 0.00 0.00 0.00 94 1011.7
20260509090553 10 0 0.0 0.0 0.00 0.00 0.00 94 1011.6
20260509085555 9 0 0.0 0.0 0.00 0.00 0.00 94 1011.6
20260509085053 9 0 0.0 0.0 0.00 0.00 0.00 93 1011.4
20260509084600 10 0 0.0 0.0 0.00 0.00 0.00 93 1011.4
20260509084053 10 0 0.0 0.0 0.00 0.00 0.00 93 1011.5
20260509083554 10 0 0.0 0.0 0.00 0.00 0.00 94 1011.6
20260509083100 10 0 0.0 0.0 0.00 0.00 0.00 94 1011.5
20260509082553 10 0 0.0 0.0 0.00 0.00 0.00 93 1011.6
20260509082055 10 0 0.0 0.0 0.00 0.00 0.00 93 1011.6
20260509081552 10 0 0.0 0.0 0.00 0.00 0.00 93 1011.5
20260509081055 10 0 0.0 0.0 0.00 0.00 0.00 93 1011.6
20260509080558 10 0 0.0 0.0 0.00 0.00 0.00 93 1011.4
20260509080057 10 0 0.0 0.0 0.00 0.00 0.00 94 1011.4
20260509075554 10 0 0.0 0.0 0.00 0.00 0.00 93 1011.3
20260509075054 10 0 0.0 0.0 0.00 0.00 0.00 93 1011.4
20260509074556 10 0 0.0 0.0 0.00 0.00 0.00 93 1011.6
20260509074056 10 0 0.0 0.0 0.00 0.00 0.00 93 1011.4
20260509073554 10 0 0.0 0.0 0.00 0.00 0.00 93 1011.6
20260509073054 10 0 0.0 0.0 0.00 0.00 0.00 92 1011.5
20260509072554 10 0 0.0 0.0 0.00 0.00 0.00 92 1011.5
20260509072055 10 0 0.0 0.0 0.00 0.00 0.00 92 1011.5
20260509071559 10 0 0.0 0.0 0.00 0.00 0.00 91 1011.6
20260509071055 10 0 0.0 0.0 0.00 0.00 0.00 91 1011.5
20260509070555 10 0 0.0 0.0 0.00 0.00 0.00 92 1011.7
20260509070056 10 0 0.0 0.0 0.00 0.00 0.00 93 1011.8
20260509065559 10 0 0.0 0.0 0.00 0.00 0.00 92 1011.9
20260509065054 10 0 0.0 0.0 0.00 0.00 0.00 92 1011.9
20260509064556 10 0 0.0 0.0 0.00 0.00 0.00 91 1012.2
20260509064054 10 0 0.0 0.0 0.00 0.00 0.00 91 1012.2
20260509063554 10 0 0.0 0.0 0.00 0.00 0.00 91 1012.3
20260509063055 10 0 0.0 1.6 0.00 0.00 0.00 91 1012.3
20260509062554 11 0 0.0 1.6 0.00 0.00 0.00 91 1012.3
20260509062054 11 0 0.0 0.0 0.00 0.00 0.00 91 1012.4
20260509061555 11 0 0.0 1.6 0.00 0.00 0.00 91 1012.5
20260509061054 11 0 0.0 1.6 0.00 0.00 0.00 91 1012.5
20260509060556 11 0 0.0 1.6 0.00 0.00 0.00 90 1012.7
20260509060107 11 0 0.0 0.0 0.00 0.00 0.00 89 1012.6
20260509055555 11 0 0.0 0.0 0.00 0.00 0.00 89 1012.6
20260509055056 11 0 0.0 1.6 0.00 0.00 0.00 90 1012.8
20260509054559 11 0 0.0 1.6 0.00 0.00 0.00 91 1012.9
20260509054054 11 0 0.0 3.2 0.00 0.00 0.00 91 1012.9
20260509053554 11 0 0.0 3.2 0.00 0.00 0.00 91 1012.7
20260509053115 11 351 0.0 1.6 0.00 0.00 0.00 91 1012.8
20260509052556 11 0 0.0 1.6 0.00 0.00 0.00 91 1012.8
20260509052052 11 0 0.0 1.6 0.00 0.00 0.00 91 1013.0
20260509051555 11 0 0.0 0.0 0.00 0.00 0.00 90 1013.0
20260509051053 11 0 0.0 0.0 0.00 0.00 0.00 89 1013.0
20260509050553 11 0 0.0 0.0 0.00 0.00 0.00 89 1013.0
20260509050109 11 0 0.0 0.0 0.00 0.00 0.00 89 1013.1
20260509045552 11 0 0.0 0.0 0.00 0.00 0.00 88 1013.3
20260509045053 11 0 0.0 0.0 0.00 0.00 0.00 88 1013.2
20260509044656 11 0 0.0 1.6 0.00 0.00 0.00 87 1013.5
20260509044053 11 0 0.0 1.6 0.00 0.00 0.00 87 1013.5
20260509043552 12 0 0.0 1.6 0.00 0.00 0.00 87 1013.4
20260509043140 12 0 0.0 1.6 0.00 0.00 0.00 87 1013.4
20260509042552 12 0 0.0 1.6 0.00 0.00 0.00 87 1013.3
20260509042052 12 0 0.0 3.2 0.00 0.00 0.00 87 1013.2
20260509041559 12 0 0.0 4.8 0.00 0.00 0.00 87 1013.2
20260509041053 12 0 0.0 4.8 0.00 0.00 0.00 87 1013.4
20260509040549 12 76 1.6 4.8 0.00 0.00 0.00 86 1013.2
20260509040059 12 0 0.0 3.2 0.00 0.00 0.00 86 1013.3
20260509035555 12 121 0.0 3.2 0.00 0.00 0.00 86 1013.4
20260509035052 12 0 1.6 3.2 0.00 0.00 0.00 86 1013.5
20260509034557 12 0 0.0 3.2 0.00 0.00 0.00 85 1013.7
20260509034052 12 0 0.0 0.0 0.00 0.00 0.00 85 1013.8
20260509033556 12 0 0.0 0.0 0.00 0.00 0.00 85 1013.8
20260509033056 12 0 0.0 1.6 0.00 0.00 0.00 85 1013.6
20260509032553 12 0 0.0 1.6 0.00 0.00 0.00 85 1013.8
20260509032052 12 0 0.0 3.2 0.00 0.00 0.00 85 1013.9
20260509031559 12 123 0.0 3.2 0.00 0.00 0.00 85 1014.0
20260509031049 12 123 0.0 3.2 0.00 0.00 0.00 85 1014.2
20260509030552 12 0 0.0 3.2 0.00 0.00 0.00 84 1014.1
20260509030112 12 242 0.0 3.2 0.00 0.00 0.00 84 1014.0
20260509025549 12 0 0.0 1.6 0.00 0.00 0.00 84 1013.9
20260509025053 12 0 0.0 1.6 0.00 0.00 0.00 84 1014.0
20260509024552 12 0 0.0 1.6 0.00 0.00 0.00 84 1014.0
20260509024052 12 0 0.0 1.6 0.00 0.00 0.00 84 1014.0
20260509023552 12 242 0.0 3.2 0.00 0.00 0.00 84 1013.9
20260509023055 12 242 0.0 3.2 0.00 0.00 0.00 84 1013.9
20260509022553 12 0 0.0 3.2 0.00 0.00 0.00 84 1013.9
20260509022056 12 286 0.0 3.2 0.00 0.00 0.00 84 1013.8
20260509021554 12 0 0.0 3.2 0.00 0.00 0.00 84 1013.7
20260509021058 12 0 0.0 0.0 0.00 0.00 0.00 84 1013.7
20260509020554 12 0 0.0 0.0 0.00 0.00 0.00 84 1013.6
20260509020107 12 0 0.0 0.0 0.00 0.00 0.00 84 1013.8
20260509015555 12 0 0.0 0.0 0.00 0.00 0.00 84 1013.7
20260509015054 13 0 0.0 0.0 0.00 0.00 0.00 83 1013.6
20260509014557 13 0 0.0 0.0 0.00 0.00 0.00 83 1013.6
20260509014054 13 0 0.0 0.0 0.00 0.00 0.00 82 1013.6
20260509013554 13 0 0.0 0.0 0.00 0.00 0.00 82 1013.4
20260509013102 13 0 0.0 0.0 0.00 0.00 0.00 82 1013.2
20260509012554 13 0 0.0 0.0 0.00 0.00 0.00 82 1013.5
20260509012054 13 0 0.0 0.0 0.00 0.00 0.00 82 1013.5
20260509011601 13 0 0.0 0.0 0.00 0.00 0.00 81 1013.6
20260509011055 13 0 0.0 0.0 0.00 0.00 0.00 81 1013.5
20260509010554 13 0 0.0 0.0 0.00 0.00 0.00 81 1013.6
20260509010057 13 0 0.0 0.0 0.00 0.00 0.00 80 1013.6
20260509005554 14 0 0.0 0.0 0.00 0.00 0.00 80 1013.5
20260509005054 14 0 0.0 0.0 0.00 0.00 0.00 79 1013.4
20260509004603 14 0 0.0 0.0 0.00 0.00 0.00 79 1013.4
20260509004054 15 0 0.0 0.0 0.00 0.00 0.00 78 1013.4
20260509003554 15 0 0.0 1.6 0.00 0.00 0.00 78 1013.6
20260509003059 15 0 0.0 1.6 0.00 0.00 0.00 78 1013.6
20260509002554 15 0 0.0 1.6 0.00 0.00 0.00 78 1013.5
20260509002054 15 0 0.0 1.6 0.00 0.00 0.00 78 1013.4
20260509001557 16 0 0.0 1.6 0.00 0.00 0.00 77 1013.4
20260509001054 16 0 0.0 1.6 0.00 0.00 0.00 77 1013.2
20260509000554 16 0 0.0 1.6 0.00 0.00 0.00 75 1013.2
20260508235554 16 0 0.0 1.6 0.00 0.00 0.00 74 1013.1
20260508235055 16 0 0.0 1.6 0.00 0.00 0.00 74 1013.2
20260508234556 16 0 0.0 1.6 0.00 0.00 0.00 74 1013.3
20260508234056 16 0 0.0 3.2 0.00 0.00 0.00 70 1013.1
20260508233555 17 0 0.0 3.2 0.00 0.00 0.00 70 1013.2
20260508233057 17 14 0.0 3.2 0.00 0.00 0.00 71 1013.2
20260508232556 17 14 0.0 3.2 0.00 0.00 0.00 71 1013.2
20260508232053 17 14 0.0 3.2 0.00 0.00 0.00 72 1013.0
20260508231555 17 14 0.0 3.2 0.00 0.00 0.00 71 1013.2
20260508231055 17 14 0.0 3.2 0.00 0.00 0.00 71 1013.2
20260508230554 17 0 0.0 3.2 0.00 0.00 0.00 68 1013.2
20260508230053 17 0 0.0 3.2 0.00 0.00 0.00 68 1013.4
20260508225552 17 0 0.0 3.2 0.00 0.00 0.00 68 1013.3
20260508225055 17 14 0.0 3.2 0.00 0.00 0.00 67 1013.3
20260508224634 18 0 0.0 3.2 0.00 0.00 0.00 68 1013.2
20260508224052 18 30 0.0 3.2 0.00 0.00 0.00 65 1013.2
20260508223552 18 0 0.0 3.2 0.00 0.00 0.00 65 1013.3
20260508223056 18 12 0.0 3.2 0.00 0.00 0.00 65 1013.1
20260508222555 18 26 0.0 4.8 0.00 0.00 0.00 67 1013.1
20260508222053 18 26 1.6 4.8 0.00 0.00 0.00 65 1012.9
20260508221554 18 29 0.0 4.8 0.00 0.00 0.00 62 1012.9
20260508221053 18 0 1.6 4.8 0.00 0.00 0.00 63 1012.9
20260508220553 18 355 0.0 3.2 0.00 0.00 0.00 66 1013.0
20260508220054 18 0 1.6 3.2 0.00 0.00 0.00 66 1013.0
20260508215552 18 0 0.0 3.2 0.00 0.00 0.00 63 1013.0
20260508215053 18 0 0.0 6.4 0.00 0.00 0.00 62 1012.9
20260508214553 18 0 0.0 6.4 0.00 0.00 0.00 61 1012.7
20260508214052 18 0 0.0 8.0 0.00 0.00 0.00 60 1012.7
20260508213552 19 355 1.6 8.0 0.00 0.00 0.00 59 1012.7
20260508213056 19 329 0.0 4.8 0.00 0.00 0.00 59 1012.8
20260508212552 20 0 0.0 1.6 0.00 0.00 0.00 61 1012.9
20260508212053 20 0 0.0 3.2 0.00 0.00 0.00 59 1012.8
20260508211554 20 0 0.0 6.4 0.00 0.00 0.00 57 1012.8
20260508211051 20 23 1.6 6.4 0.00 0.00 0.00 55 1012.9
20260508210551 20 0 1.6 6.4 0.00 0.00 0.00 57 1013.1
20260508210055 20 352 0.0 3.2 0.00 0.00 0.00 58 1013.1
20260508205553 20 0 0.0 3.2 0.00 0.00 0.00 58 1013.0
20260508205051 20 0 0.0 3.2 0.00 0.00 0.00 54 1013.0
20260508204553 20 0 0.0 3.2 0.00 0.00 0.00 56 1013.1
20260508204048 20 352 0.0 3.2 0.00 0.00 0.00 59 1012.9
20260508203551 20 0 0.0 4.8 0.00 0.00 0.00 56 1012.8
20260508203101 20 352 0.0 6.4 0.00 0.00 0.00 54 1013.0
20260508202553 20 0 1.6 6.4 0.00 0.00 0.00 54 1012.9
20260508202050 20 338 1.6 6.4 0.00 0.00 0.00 54 1012.8
20260508201602 20 0 0.0 6.4 0.00 0.00 0.00 51 1013.1
20260508201052 20 82 1.6 6.4 0.00 0.00 0.00 51 1013.1
20260508200550 20 27 1.6 6.4 0.00 0.00 0.00 49 1013.2
20260508200053 20 34 0.0 3.2 0.00 0.00 0.00 50 1013.3
20260508195555 20 332 0.0 4.8 0.00 0.00 0.00 53 1013.4
20260508195051 21 0 0.0 4.8 0.00 0.00 0.00 54 1013.6
20260508194554 21 303 1.6 4.8 0.00 0.00 0.00 49 1013.5
20260508194051 21 329 0.0 3.2 0.00 0.00 0.00 51 1013.4
20260508193554 21 0 0.0 3.2 0.00 0.00 0.00 49 1013.7
20260508193102 21 325 1.6 3.2 0.00 0.00 0.00 48 1013.6
20260508192552 21 319 0.0 3.2 0.00 0.00 0.00 53 1013.6
20260508192052 21 164 0.0 3.2 0.00 0.00 0.00 46 1013.6
20260508191555 21 226 0.0 4.8 0.00 0.00 0.00 46 1013.8
20260508191053 21 0 0.0 4.8 0.00 0.00 0.00 49 1014.0
20260508190551 21 327 1.6 4.8 0.00 0.00 0.00 50 1014.0
20260508190054 21 0 0.0 3.2 0.00 0.00 0.00 49 1014.0
20260508185553 21 5 0.0 6.4 0.00 0.00 0.00 47 1014.2
20260508185050 21 308 1.6 6.4 0.00 0.00 0.00 46 1014.3
20260508184600 21 159 1.6 4.8 0.00 0.00 0.00 45 1014.3
20260508184052 21 171 1.6 4.8 0.00 0.00 0.00 44 1014.6
20260508183551 21 306 1.6 4.8 0.00 0.00 0.00 44 1014.7
20260508183055 20 0 0.0 4.8 0.00 0.00 0.00 46 1014.5
20260508182551 20 350 1.6 4.8 0.00 0.00 0.00 48 1014.7
20260508182051 20 292 0.0 4.8 0.00 0.00 0.00 48 1014.6
20260508181558 20 0 1.6 4.8 0.00 0.00 0.00 47 1014.6
20260508181055 20 281 1.6 8.0 0.00 0.00 0.00 47 1014.6
20260508180548 20 341 1.6 8.0 0.00 0.00 0.00 44 1014.7
20260508180057 20 9 3.2 8.0 0.00 0.00 0.00 45 1014.7
20260508175549 20 349 0.0 6.4 0.00 0.00 0.00 48 1014.8
20260508175049 20 238 1.6 6.4 0.00 0.00 0.00 48 1015.1
20260508174559 20 70 1.6 4.8 0.00 0.00 0.00 46 1015.0
20260508174052 20 0 1.6 4.8 0.00 0.00 0.00 48 1015.0
20260508173554 19 25 1.6 8.0 0.00 0.00 0.00 47 1015.1
20260508173058 19 37 1.6 8.0 0.00 0.00 0.00 45 1015.1
20260508172552 20 316 1.6 8.0 0.00 0.00 0.00 51 1015.3
20260508172053 19 302 1.6 11.3 0.00 0.00 0.00 51 1015.3
20260508171559 19 0 1.6 11.3 0.00 0.00 0.00 46 1015.2
20260508171052 19 22 1.6 6.4 0.00 0.00 0.00 44 1015.3
20260508170552 20 343 1.6 9.7 0.00 0.00 0.00 48 1015.5
20260508170055 19 9 1.6 9.7 0.00 0.00 0.00 46 1015.5
20260508165551 19 0 1.6 6.4 0.00 0.00 0.00 50 1015.5
20260508165051 19 161 1.6 9.7 0.00 0.00 0.00 54 1015.7
20260508164557 19 292 1.6 9.7 0.00 0.00 0.00 62 1015.8
20260508164049 18 96 1.6 9.7 0.00 0.00 0.00 54 1015.9
20260508163553 18 340 1.6 6.4 0.00 0.00 0.00 61 1016.0
20260508163054 18 17 1.6 6.4 0.00 0.00 0.00 62 1016.0
20260508162553 18 0 1.6 6.4 0.00 0.00 0.00 59 1016.0
20260508162054 18 46 1.6 6.4 0.00 0.00 0.00 65 1016.3
20260508161600 18 141 3.2 6.4 0.00 0.00 0.00 64 1016.2
20260508161053 18 26 0.0 4.8 0.00 0.00 0.00 72 1016.2
20260508160555 18 343 0.0 4.8 0.00 0.00 0.00 71 1016.4
20260508160059 17 0 1.6 9.7 0.00 0.00 0.00 63 1016.6
20260508155553 17 0 1.6 9.7 0.00 0.00 0.00 65 1016.5
20260508155056 17 89 3.2 9.7 0.00 0.00 0.00 70 1016.6